THORAD AGENA D DEB

Satellite information

Favourite Embed

Satellite Type and Status

DEBRISIN ORBIT

Key statistics

Satellite THORAD AGENA D DEB at a glance.

Uptime

20299

Days in orbit

Revolutions

≈ 14.4

Per day

Orbit

SSO

Sun Synchronous Orbit

Inclination

100.0

Latest

Satellite identification and parameters

Extended collection of information and parameters for THORAD AGENA D DEB.

Object identification

Identified? True

Debris? True

Object name: THORAD AGENA D DEB

International designator: 1970-025LA

Object number (NORAD): 5422

Object ID (CCSDS): 5422

Country: UNITED STATES OF AMERICA (US)

Current information (Y/N): Y

RCS size: SMALL

Orbital parameters

Period: 99.742 minutes

Inclination: 100.0007 deg

SMA: 7124.373 km

Apoapsis: 798.264 km

Periapsis: 694.212 km

RAAN: 84.8844 deg

Eccentricy: 0.0073025

Argument of periapsis: 305.2235 deg

Mean anomaly: 54.2129 deg

Mean motion: 14.4371936 rev/day

Mean motion (dot): 0.00007459 rev/day2

B* drag term: 0.0021401 1/REarth

Two-line elements (TLE)

Creation date: Nov. 2, 2025, 3:46 p.m.

Reference frame: TEME

Reference center: EARTH

Epoch: Nov. 2, 2025, 8:31 a.m. UTC

TLE line 0: 0 THORAD AGENA D DEB

TLE line 1: 1 5422U 70025LA 25306.35547003 .00007459 00000-0 21401-2 0 9995

TLE line 2: 2 5422 100.0007 84.8844 0073025 305.2235 54.2129 14.43719360824203

Live tracking on map

Real-time ground track for satellite THORAD AGENA D DEB.

In-orbit conjunctions

A list of the most updated potential collisions computed for object THORAD AGENA D DEB.

Target Orbit TCA Probability of collision Miss distance Type
CZ-6A DEB LEO 2025-02-16 22:34:16 0.0001058131 338.0 (m) DEBRIS
COSMOS 1275 DEB LEO 2024-11-09 18:35:35 0.0003894069 271.0 (m) DEBRIS

Associated space launch

Meteorological research and development satellite

THORAD AGENA D DEB was lifted into orbit during the mission ‘Thorad SLV-2G Agena D | Nimbus 4’, on board a Thorad SLV-2G Agena D space rocket.

The launch took place on April 8, 1970, 8:17 a.m. from Space Launch Complex 2E.

For more information about the launch, click the button.

Launch to space Thorad SLV-2G Agena D | Nimbus 4
Thorad SLV-2G Agena D | Nimbus 4

Agency: N/A

Status: Launch Successful

Launch date: April 8, 1970, 8:17 a.m. UTC

Rocket: Thorad SLV-2G Agena D

Launch pad: Space Launch Complex 2E

Location: Vandenberg SFB, CA, USA

...

Latest news about this satellite

There are no fresh news available about this satellite. Check back as we update our databases every day.


Newsletter sign-up

Weekly statistics, charts and insights to help you stay on top of the space industry.